PROBA-1 1 26958U 01049B 26106.99881241 .00001085 00000+0 74277-4 0 9995 2 26958 97.9623 113.3997 0054421 331.5897 28.2364 15.07261572334408 CUTE-1 (CO-55) 1 27844U 03031E 26106.78011330 .00000189 00000+0 10099-3 0 9999 2 27844 98.6764 116.1074 0009705 11.4859 348.6539 14.24296809182932 CUBESAT XI-IV (CO-57) 1 27848U 03031J 26106.52703389 .00000164 00000+0 91279-4 0 9990 2 27848 98.6796 115.6194 0010020 29.7735 330.4012 14.23587215182607 APRIZESAT 4 1 35684U 09041D 26106.15040097 .00000395 00000+0 53925-4 0 9995 2 35684 98.1432 180.2341 0043858 161.2074 199.0771 14.83783521902167 APRIZESAT 3 1 35686U 09041F 26106.36855817 .00001376 00000+0 12418-3 0 9995 2 35686 98.1980 256.6684 0060402 271.1768 88.2532 14.96034976907133 PROBA-2 1 36037U 09059B 26106.47947586 .00000114 00000+0 36978-4 0 9999 2 36037 98.2452 290.6878 0014459 109.9443 250.3313 14.54835681872553 APRIZESAT 5 1 37792U 11044E 26106.79573680 .00000487 00000+0 69085-4 0 9998 2 37792 98.2429 38.1132 0051798 199.0469 160.8807 14.80955736789709 APRIZESAT 6 1 37793U 11044F 26106.75607582 .00000428 00000+0 68095-4 0 9999 2 37793 98.2394 15.9952 0041841 283.0611 96.1470 14.76832044788083 PROBA-V 1 39159U 13021A 26106.90084260 .00000029 00000+0 30627-4 0 9990 2 39159 98.3554 88.5463 0003412 327.2197 32.8770 14.23583688672390 APRIZESAT 7 1 39416U 13066A 26106.43261823 .00000901 00000+0 94759-4 0 9990 2 39416 97.7655 60.5667 0037257 57.3996 303.0810 14.91408793672025 APRIZESAT 8 1 39425U 13066K 26106.79646283 .00000587 00000+0 69520-4 0 9994 2 39425 97.8174 55.1465 0047215 126.7990 233.7573 14.87519503670545 BUGSAT-1 (TITA) 1 40014U 14033E 26106.95241176 .00000747 00000+0 43700-4 0 9995 2 40014 98.0413 195.9589 0029012 32.6902 327.6116 15.14971687646560 SAUDISAT 4 1 40016U 14033G 26106.37078323 .00000377 00000+0 56740-4 0 9992 2 40016 97.7490 254.6761 0043411 274.6830 84.9424 14.79453299636934 APRIZESAT 9 1 40018U 14033J 26106.37308842 .00000312 00000+0 53351-4 0 9990 2 40018 97.8958 241.1173 0067048 40.0434 320.5690 14.74145358634459 APRIZESAT 10 1 40019U 14033K 26106.35689230 .00000369 00000+0 65559-4 0 9997 2 40019 97.9549 234.7317 0080181 110.9524 250.0287 14.70823136633164 TECHDEMOSAT-1 (TDS-1) 1 40076U 14037H 26106.71102188 .00005615 00000+0 32832-3 0 9992 2 40076 98.3802 92.8886 0008078 111.3319 248.8772 15.12319697638933 TECHNOSAT 1 42829U 17042E 26106.80544372 .00001829 00000+0 13423-3 0 9992 2 42829 97.4205 266.8401 0016716 306.0715 53.8963 15.04575174477476 FLYING LAPTOP 1 42831U 17042G 26106.91880828 .00001934 00000+0 15646-3 0 9992 2 42831 97.4403 264.9291 0018935 334.7670 25.2627 15.00764282477261 HAWK-A 1 43765U 18099H 26106.63857976 .00004311 00000+0 17856-3 0 9996 2 43765 97.3978 159.6949 0036706 140.3877 220.0053 15.23833616403721 HAWK-B 1 43794U 18099AN 26106.65350584 .00003672 00000+0 16118-3 0 9992 2 43794 97.4027 159.2507 0033374 157.0177 203.2562 15.22077991403678 HAWK-C 1 43799U 18099AT 26106.68565016 .00005538 00000+0 20556-3 0 9992 2 43799 97.3955 160.3588 0042616 141.6192 218.8092 15.27125802404524 SALSAT 1 46495U 20068K 26106.57607044 .00004776 00000+0 17294-3 0 9991 2 46495 97.8862 105.9354 0010819 149.7925 210.3939 15.28882964305944 HAWK-2C 1 47502U 21006CT 26106.84596496 .00004024 00000+0 12497-3 0 9998 2 47502 97.2342 152.3940 0008559 68.9072 291.3086 15.33895560290094 HAWK-2A 1 47505U 21006CW 26106.84899491 .00004075 00000+0 12649-3 0 9997 2 47505 97.2384 153.0384 0008192 72.2347 287.9790 15.33908368290093 HAWK-2B 1 47508U 21006CZ 26106.84607678 .00004777 00000+0 14780-3 0 9991 2 47508 97.2258 151.4691 0008680 69.9188 290.2989 15.33923321290090 HAWK-3B 1 48931U 21059BE 26106.95852844 .00027145 00000+0 28074-3 0 9994 2 48931 97.6703 298.1033 0005751 183.5219 176.6000 15.64701979268265 HAWK-3C 1 48948U 21059BX 26106.51054390 .00026403 00000+0 27339-3 0 9993 2 48948 97.6835 303.1913 0005930 185.1987 174.9210 15.64676459268192 HAWK-3A 1 48957U 21059CG 26106.51044409 .00027193 00000+0 28151-3 0 9993 2 48957 97.6779 300.4463 0005716 184.7036 175.4169 15.64677581268197 HAWK-5C 1 52754U 22057Y 26106.85290413 .00012227 00000+0 22630-3 0 9995 2 52754 97.6514 262.7108 0003711 289.7778 70.3072 15.49178110216840 HAWK-5B 1 52756U 22057AA 26106.85274925 .00012044 00000+0 22302-3 0 9990 2 52756 97.6516 261.0534 0003662 282.2128 77.8712 15.49167538216846 HAWK-5A 1 52757U 22057AB 26106.85251511 .00012317 00000+0 22797-3 0 9998 2 52757 97.6516 261.8868 0004030 285.7972 74.2834 15.49173594216845 HAWK-6B 1 55324U 23011A 26106.85792871 .00003072 00000+0 13854-3 0 9993 2 55324 40.4997 349.6321 0004037 306.9453 53.0986 15.22373182178490 HAWK-6C 1 55326U 23011C 26106.72611537 .00003119 00000+0 14056-3 0 9997 2 55326 40.4988 347.2453 0004456 294.8870 65.1475 15.22373413178488 HAWK-6A 1 55327U 23011D 26106.39814143 .00002892 00000+0 13095-3 0 9998 2 55327 40.4999 350.7759 0004204 293.3851 66.6516 15.22370760178432 HAWK-7A 1 56191U 23054P 26106.97176369 .00003287 00000+0 12786-3 0 9995 2 56191 97.2781 355.8690 0001166 226.5994 133.5149 15.26714020167687 HAWK-7B 1 56193U 23054R 26106.90615651 .00003359 00000+0 13060-3 0 9998 2 56193 97.2807 354.0464 0000315 241.5592 118.5615 15.26714064167672 HAWK-7C 1 56200U 23054Y 26106.90605818 .00003526 00000+0 13694-3 0 9990 2 56200 97.2784 354.8345 0000792 205.9483 154.1716 15.26714132167677